Simultaneous Nadir Overpasses (SNOs) Predictions

Prediction of SNOs between METOP-C and LANDSAT-8 Satellite Orbit:

Table of predicted SNOs for the next 14.0 days since TLE Epoch: 10/31/2025
Index Date (METOP-C) Time (METOP-C) Lat,Lon (METOP-C) SZA (METOP-C ) Date (LANDSAT-8) Time (LANDSAT-8) Lat,Lon (LANDSAT-8) SZA (LANDSAT-8 ) Distance(km) Time Diff (sec)
1 11/02/2025 07:06:30 81.12, 113.04 98.33 11/02/2025 07:07:00 81.12, 113.12 98.35 1.45 30
2 11/02/2025 07:57:09 -81.14, -78.96 81.58 11/02/2025 07:56:26 -81.14, -78.93 81.60 0.56 43
3 11/05/2025 02:40:51 81.13, 179.76 99.23 11/05/2025 02:41:14 81.13, 179.66 99.23 1.82 23
4 11/05/2025 03:31:30 -81.15, -12.19 80.67 11/05/2025 03:30:40 -81.15, -12.36 80.71 3.02 50
5 11/07/2025 22:15:14 81.12,-113.97 100.04 11/07/2025 22:15:29 81.12,-114.02 100.04 0.94 15
6 11/07/2025 23:05:53 -81.15, 54.12 79.86 11/07/2025 23:04:55 -81.14, 53.98 79.90 2.51 58
7 11/10/2025 17:49:36 81.13, -47.41 100.85 11/10/2025 17:49:43 81.12, -47.55 100.83 2.51 7
8 11/10/2025 18:40:16 -81.14, 120.35 79.09 11/10/2025 18:39:09 -81.14, 120.47 79.11 2.14 67
9 11/13/2025 12:33:18 -81.11,-148.76 78.47 11/13/2025 12:34:30 -81.11,-148.91 78.46 2.56 72
10 11/13/2025 13:23:57 81.13, 19.07 101.60 11/13/2025 13:23:55 81.13, 19.07 101.60 0.18 2



Historial Predications of SNOs between METOP-C and LANDSAT-8
